Find Starlink 4314

NORAD ID: 53056 Int'l Des: 2022-077 Owner: SPXS Country: US Constellation: starlink operational
LEOCIRCULARRETROGRADESSO

現在のビュー

3D地球を読み込み中...

About Starlink 4314

Starlink 4314 (NORAD 53056) is a starlink constellation satellite (v1.5) launched Jul 11, 2022 by SPXS of US. It operates in LEO, CIRCULAR, RETROGRADE, SSO orbit with a mass of 297.00 kg.

Starlink 4314について

説明を読み込み中...

次回通過

Passes for default location (London). Set your location on the main map for personalized predictions.

高度履歴

Loading altitude history...

軌道要素

1 53056U 22077P 26169.07279063 -.00001799 00000-0 -12073-3 0 9999
2 53056 97.3463 349.1336 0001420 116.6609 243.4764 15.05656421216080
Epoch: Jun 18, 2026 • Age: 20 hours

現在のステータス

高度 551.4 km
速度 7.59 km/s
衛星直下点 8.30°N, 60.84°W
打ち上げ日 Jul 11, 2022
運用期間 3.9 years
タイプ internet

技術仕様

分類 Payload
質量 297.00 kg
乾燥質量 275.00 kg
総質量 297.00 kg
長さ 0.20 m
直径 2.80 m
スパン 9.00 m
形状 Box + pan
製造者 SPXS
バスタイプ Starlink
フェーズステータス In Orbit
所有者/国 SPXS/US

Most Searched